| time (UTC) | temp F | wind direction | speed MPH | gust MPH | rain 1hr in | rain 24hr in | rain mn in | humidity % | barometer mb |
| 20260504034535 | 50 | 0 | 0.0 | 2.0 | 0.00 | 0.00 | 0.00 | 75 | 1017.7 |
| 20260504033038 | 50 | 0 | 0.0 | 0.0 | 0.00 | 0.00 | 0.00 | 72 | 1017.8 |
| 20260504031539 | 51 | 0 | 0.0 | 0.0 | 0.00 | 0.00 | 0.00 | 72 | 1017.7 |
| 20260504030042 | 52 | 360 | 0.0 | 2.0 | 0.00 | 0.00 | 0.00 | 68 | 1017.7 |
| 20260504024536 | 53 | 0 | 0.0 | 1.0 | 0.00 | 0.00 | 0.00 | 68 | 1017.7 |
| 20260504023032 | 53 | 0 | 0.0 | 1.0 | 0.00 | 0.00 | 0.00 | 68 | 1017.5 |
| 20260504021539 | 54 | 0 | 0.0 | 0.0 | 0.00 | 0.00 | 0.00 | 67 | 1017.3 |
| 20260504020039 | 55 | 0 | 0.0 | 1.0 | 0.00 | 0.00 | 0.00 | 66 | 1017.1 |
| 20260504014551 | 55 | 0 | 0.0 | 1.0 | 0.00 | 0.00 | 0.00 | 62 | 1016.9 |
| 20260504013037 | 56 | 0 | 0.0 | 2.0 | 0.00 | 0.00 | 0.00 | 65 | 1016.8 |
| 20260504011536 | 56 | 0 | 0.0 | 1.0 | 0.00 | 0.00 | 0.00 | 64 | 1016.6 |
| 20260504010037 | 57 | 0 | 0.0 | 0.0 | 0.00 | 0.00 | 0.00 | 65 | 1016.6 |
| 20260504004534 | 58 | 0 | 0.0 | 0.0 | 0.00 | 0.00 | 0.00 | 62 | 1016.7 |
| 20260504003038 | 59 | 0 | 0.0 | 0.0 | 0.00 | 0.00 | 0.00 | 58 | 1016.5 |
| 20260504001537 | 61 | 0 | 0.0 | 0.0 | 0.00 | 0.00 | 0.00 | 55 | 1016.3 |
| 20260504000037 | 63 | 0 | 0.0 | 1.0 | 0.00 | 0.00 | 0.00 | 54 | 1016.1 |
| 20260503234545 | 65 | 0 | 0.0 | 1.0 | 0.00 | 0.00 | 0.00 | 49 | 1016.0 |
| 20260503233037 | 66 | 0 | 0.0 | 2.0 | 0.00 | 0.00 | 0.00 | 49 | 1016.1 |
| 20260503231535 | 67 | 0 | 0.0 | 2.0 | 0.00 | 0.00 | 0.00 | 44 | 1016.0 |
| 20260503230041 | 69 | 0 | 0.0 | 2.0 | 0.00 | 0.00 | 0.00 | 42 | 1016.2 |
| 20260503224536 | 70 | 277 | 1.0 | 7.0 | 0.00 | 0.00 | 0.00 | 37 | 1016.3 |
| 20260503223038 | 71 | 0 | 0.0 | 4.0 | 0.00 | 0.00 | 0.00 | 38 | 1016.3 |
| 20260503221532 | 71 | 0 | 0.0 | 3.0 | 0.00 | 0.00 | 0.00 | 34 | 1016.4 |
| 20260503220044 | 71 | 272 | 1.0 | 6.0 | 0.00 | 0.00 | 0.00 | 37 | 1016.5 |
| 20260503214537 | 72 | 272 | 1.0 | 7.0 | 0.00 | 0.00 | 0.00 | 32 | 1016.4 |
| 20260503213037 | 72 | 0 | 0.0 | 4.0 | 0.00 | 0.00 | 0.00 | 31 | 1016.5 |
| 20260503211535 | 72 | 234 | 1.0 | 4.0 | 0.00 | 0.00 | 0.00 | 34 | 1016.7 |
| 20260503210037 | 72 | 317 | 1.0 | 7.0 | 0.00 | 0.00 | 0.00 | 31 | 1016.8 |
| 20260503204539 | 72 | 0 | 1.0 | 4.0 | 0.00 | 0.00 | 0.00 | 34 | 1017.0 |
| 20260503203037 | 71 | 174 | 1.0 | 8.0 | 0.00 | 0.00 | 0.00 | 34 | 1017.3 |
| 20260503201537 | 72 | 304 | 2.0 | 8.0 | 0.00 | 0.00 | 0.00 | 30 | 1017.5 |
| 20260503200036 | 71 | 246 | 0.0 | 9.0 | 0.00 | 0.00 | 0.00 | 35 | 1017.8 |
| 20260503194542 | 71 | 60 | 0.0 | 4.0 | 0.00 | 0.00 | 0.00 | 31 | 1018.0 |
| 20260503193036 | 71 | 275 | 1.0 | 8.0 | 0.00 | 0.00 | 0.00 | 33 | 1018.3 |
| 20260503191537 | 71 | 341 | 2.0 | 7.0 | 0.00 | 0.00 | 0.00 | 31 | 1018.4 |
| 20260503190037 | 70 | 0 | 2.0 | 6.0 | 0.00 | 0.00 | 0.00 | 34 | 1018.8 |
| 20260503184542 | 70 | 284 | 0.0 | 7.0 | 0.00 | 0.00 | 0.00 | 39 | 1018.9 |
| 20260503183053 | 69 | 0 | 0.0 | 4.0 | 0.00 | 0.00 | 0.00 | 42 | 1019.0 |
| 20260503181538 | 68 | 42 | 1.0 | 4.0 | 0.00 | 0.00 | 0.00 | 41 | 1019.1 |
| 20260503180037 | 68 | 0 | 1.0 | 6.0 | 0.00 | 0.00 | 0.00 | 42 | 1019.3 |
| 20260503174536 | 66 | 289 | 2.0 | 7.0 | 0.00 | 0.00 | 0.00 | 40 | 1019.5 |
| 20260503173034 | 66 | 221 | 1.0 | 4.0 | 0.00 | 0.00 | 0.00 | 41 | 1019.6 |
| 20260503171535 | 66 | 245 | 1.0 | 8.0 | 0.00 | 0.00 | 0.00 | 45 | 1019.8 |
| 20260503081540 | 41 | 0 | 0.0 | 0.0 | 0.00 | 0.00 | 0.00 | 84 | 1017.7 |
| 20260503071537 | 42 | 0 | 0.0 | 0.0 | 0.00 | 0.00 | 0.00 | 82 | 1017.0 |
| 20260503054544 | 43 | 0 | 0.0 | 0.0 | 0.00 | 0.00 | 0.00 | 81 | 1017.0 |
| 20260503053036 | 43 | 0 | 0.0 | 0.0 | 0.00 | 0.00 | 0.00 | 80 | 1017.0 |
| 20260503051535 | 43 | 0 | 0.0 | 0.0 | 0.00 | 0.00 | 0.00 | 81 | 1017.0 |
| 20260503050041 | 44 | 0 | 0.0 | 0.0 | 0.00 | 0.00 | 0.00 | 80 | 1017.1 |
| 20260503044537 | 44 | 0 | 0.0 | 0.0 | 0.00 | 0.00 | 0.00 | 79 | 1017.1 |
| 20260503043037 | 44 | 0 | 0.0 | 0.0 | 0.00 | 0.00 | 0.00 | 78 | 1016.8 |
| 20260503041539 | 45 | 0 | 0.0 | 0.0 | 0.00 | 0.00 | 0.00 | 77 | 1016.8 |
| 20260503040046 | 45 | 0 | 0.0 | 0.0 | 0.00 | 0.00 | 0.00 | 77 | 1016.6 |